Location: Bacea
(45.9500°N, 22.6667°E)
Time: 20:03:36
(UTC+00:00)

YAOGAN 1 - Pass Details

Date: 16 October 2021
Orbit: 618 x 620 km, 97.9° (Epoch: 29 November)

Event Time Altitude Azimuth Distance (km) Brightness Sun altitude
Rises 16:26:01 0° 139° (SE) 2,886 5.6 -8.5°
Reaches altitude 10° 16:28:22 10° 129° (SE) 1,985 4.7 -8.9°
Maximum altitude 16:32:10 31° 68° (ENE) 1,095 3.3 -9.6°
Drops below altitude 10° 16:36:00 10° 6° (N) 1,999 5.1 -10.2°
Sets 16:38:22 0° 356° (N) 2,910 6.0 -10.6°
